Regional Weather Roundup
Issued by NWS

Home | Current Version | Previous Version | Text Only | Print | Product List | Glossary On
Versions: 1 2 3 4 5 6 7 8 9 10 11 12 13 14 15 16 17 18 19 20 21 22 23 24 25 26 27 28 29 30 31 32 33 34 35 36 37 38 39 40 41 42 43 44 45 46 47 48 49 50
380
ASUS43 KLOT 231008
RWRIL

ILLINOIS REGIONAL WEATHER ROUNDUP
NATIONAL WEATHER SERVICE CHICAGO/ROMEOVILLE IL
400 AM CST THU NOV 23 2017

NOTE: "FAIR" INDICATES FEW OR NO CLOUDS BELOW 12,000 FEET WITH NO
SIGNIFICANT WEATHER AND/OR OBSTRUCTIONS TO VISIBILITY.

* THESE STATIONS ARE NOT UNDER NWS QUALITY CONTROL. THEY ALSO MAY NOT
  REPORT WEATHER SUCH AS PRECIPITATION OR FOG.

ILZ001-002-007-009-015-016-024-231100-
NORTHWEST ILLINOIS

CITY           SKY/WX    TMP DP  RH WIND       PRES   REMARKS
MOLINE         CLOUDY    34  18  52 S9        30.01F WCI  27
STERLING*      CLOUDY    33  21  61 VRB5      30.04F WCI  29
SAVANNA*       CLOUDY    32  20  62 S10       30.02F WCI  23
$$

ILZ003-004-008-010-011-017-018-231100-
NORTH CENTRAL ILLINOIS

CITY           SKY/WX    TMP DP  RH WIND       PRES   REMARKS
ROCKFORD       CLOUDY    32  24  72 S10       30.05F WCI  24
FREEPORT*      CLOUDY    32  20  61 S14       30.03F WCI  22
ROCHELLE*      CLOUDY    32  23  70 S12       30.05F WCI  23
DE KALB*       CLOUDY    31  24  74 S15       30.05F WCI  20
PERU*          CLOUDY    31  22  68 S12       30.07F WCI  22
$$

ILZ005-006-012>014-019>023-231100-
NORTHEAST ILLINOIS

CITY           SKY/WX    TMP DP  RH WIND       PRES   REMARKS
CHICAGO-OHARE  CLOUDY    33  19  56 S13       30.06F WCI  24
CHICAGO-MIDWAY CLOUDY    33  20  58 SW10      30.08F WCI  25
AURORA         CLOUDY    32  22  66 S10       30.07F WCI  24
LANSING*       CLOUDY    32  24  73 S9        30.11F WCI  24
JOLIET*        CLOUDY    33  23  64 S9        30.10F WCI  26
WAUKEGAN       CLOUDY    32  20  61 S10       30.03F WCI  24
DUPAGE AIRPORT CLOUDY    31  22  69 S12       30.05F WCI  22
KANKAKEE*      CLOUDY    32  22  68 SW6       30.13F WCI  26
WHEELING       CLOUDY    34  20  56 S10       30.07F WCI  26
MORRIS*        CLOUDY    32  23  70 S9        30.08F WCI  24
ROMEOVILLE*    CLOUDY    32  22  67 S10       30.09F WCI  24
NORTHERLY ISL    N/A     33  18  54 S8          N/A  WCI  26
$$

LMZ740>746-231100-
SOUTHERN LAKE MICHIGAN

STATION/POSITION SKY/WX   TEMP    WIND        PRES    VSBY  WAVE
                          AIR SEA DIR/SP/G                  HT/PER
                          (F)     (DEG/KT/KT) (MB)    (MI)  (FT/S)
SOUTHERN BUOY              36 47  260/ 17/ 21 1019.6          3/ 5
HARRISON CRIB              34     210/ 14/ 16   N/A
BURNHAM HARBOR             33     210/ 10/ 12   N/A
CALUMET HARBOR             33     200/ 10/ 12 1018.4F
BURNS HARBOR               32     190/ 10/ 13 1020.3F
MICHIGAN CITY              31     190/ 11/ 13   N/A
$$

ILZ025>027-034>036-040-047-049-050-058-095>099-231100-
WEST-CENTRAL ILLINOIS

CITY           SKY/WX    TMP DP  RH WIND       PRES   REMARKS
QUINCY         CLEAR     32  18  56 S12       30.07F WCI  23
GALESBURG*     MOCLDY    32  22  67 S10       30.05F WCI  24
MACOMB*        PTCLDY    31  22  67 S9        30.09F WCI  23
JACKSONVILLE*  PTCLDY    31  21  65 S9        30.12F WCI  23
PITTSFIELD*    CLEAR     31  21  67 S7        30.11F WCI  24
$$

ILZ028>032-037-038-041>044-048-051>054-059>061-231100-
CENTRAL ILLINOIS

CITY           SKY/WX    TMP DP  RH WIND       PRES   REMARKS
PONTIAC        CLOUDY    32  24  71 S12       30.12F WCI  23
BLOOMINGTON    CLOUDY    30  23  75 S12       30.12F WCI  20
DECATUR        CLOUDY    30  22  72 S8        30.15F WCI  22
PEORIA         CLOUDY    33  22  63 S12       30.10F WCI  24
LACON*         CLOUDY    33  20  59 S8        30.08F WCI  26
LINCOLN*       CLOUDY    32  25  76 S10       30.12F WCI  24
SPRINGFIELD    MOCLDY    32  23  69 S10       30.14F WCI  24
TAYLORVILLE    CLOUDY    30  23  74 S8        30.15F WCI  23
$$

ILZ033-039-045-046-055>057-062-063-231100-
EAST-CENTRAL ILLINOIS

CITY           SKY/WX    TMP DP  RH WIND       PRES   REMARKS
CHAMPAIGN      MOCLDY    30  24  78 S8        30.15F WCI  22
DANVILLE*      CLOUDY    29  24  79 SW5       30.14F WCI  24
RANTOUL*       CLOUDY    33  26  76 S3        30.14F
MATTOON        CLEAR     29  21  72 S3        30.16F
PARIS*         CLOUDY    28  25  87 S6        30.18F WCI  22
$$

ILZ079-100>102-231100-
SOUTHWEST ILLINOIS

CITY           SKY/WX    TMP DP  RH WIND       PRES   REMARKS
ALTON          CLEAR     28  24  84 SE3       30.17F
BELLEVILLE     MOCLDY    28  24  83 S3        30.17F
CAHOKIA*       MOCLDY    30  22  72 S3        30.17F
SPARTA*        CLOUDY    31  24  75 CALM      30.20F
$$

ILZ064>066-069>071-074>076-080>082-084>086-088>090-092>094-231100-
SOUTH-CENTRAL ILLINOIS

CITY           SKY/WX    TMP DP  RH WIND       PRES   REMARKS
CARBONDALE     CLOUDY    27  25  92 CALM      30.20F
CAIRO*         CLOUDY    26  24  93 CALM      30.22S
EFFINGHAM*     CLOUDY    29  25  85 CALM      30.20F
MARION         CLOUDY    28  27  97 CALM      30.21F
MT. VERNON     PTCLDY    24  23  96 CALM      30.20F
CENTRALIA*     MOCLDY    29  24  82 CALM      30.19F
SALEM*         MOCLDY    31  22  71 CALM      30.19F
METROPOLIS*    CLOUDY    25  22  91 CALM      30.22S
$$

ILZ067-068-072-073-078-083-087-091-231100-
SOUTHEAST ILLINOIS

CITY           SKY/WX    TMP DP  RH WIND       PRES   REMARKS
LAWRENCEVILLE  MOCLDY    30  24  78 CALM      30.21F
FLORA*         CLOUDY    28  26  91 CALM      30.20F
FAIRFIELD*     CLOUDY    27  24  91 CALM      30.19F
HARRISBURG*    CLOUDY    27  26  96 CALM      30.22S
ROBINSON*      CLOUDY    28  25  89 CALM      30.20F
CARMI*         CLOUDY    23  21  94 CALM      30.21S
$$

ABBREVIATIONS USED IN REMARKS
   TC - TEMPERATURE IN CELSIUS
  WCI - WIND CHILL INDEX
   HX - HEAT INDEX
  VSB - VISIBILITY
$$





USA.gov is the U.S. government's official web portal to all federal, state and local government web resources and services.